PROFILE

 METAR AND TAF INFORMATION
ADDS - METARS form results

(0555 UTC 19 July 2019)
http://aviationweather.gov/metar/data/
 
LGSM 190520Z 34007KT 9999 FEW025 24/14 Q1010
TAF LGSM 190500Z 1906/1915 35013KT 9999 FEW020 

 AIRPORT MAP

 RUNWAY INFORMATION
Runway 09 Runway length 6706 ft Runway width 148 ft
Runway elevation 20 ft Runway displaced threshold 230 ft Runway heading 94
Runway 27 Runway length 6706 ft Runway width 148 ft
Runway elevation 10 ft Runway displaced threshold 0 ft Runway heading 274

 AIRPORT FREQUENCIES
Type A/G Name RDO Frequency 563.7 MHZ
Type APP Name APP Frequency 122.1 MHZ
Type TWR Name TWR Frequency 122.1 MHZ

 AIRPORT NEAR NAVIGATION AIDS
Type VOR-DME Name Samos Frequency 111600 KHZ
Type NDB Name Samos Frequency 375 KHZ